Date,TemperatureHighF,TemperatureAvgF,TemperatureLowF,DewpointHighF,DewpointAvgF,DewpointLowF,HumidityHigh,HumidityAvg,HumidityLow,PressureMaxIn,PressureMinIn,WindSpeedMaxMPH,WindSpeedAvgMPH,GustSpeedMaxMPH,PrecipitationSumIn
2013-4-1,56,48,42,42,37,28,82,66,52,30.19,29.93,10,3,15,0.01
2013-4-2,42,37,35,35,32,28,95,84,59,30.29,30.16,8,2,12,0.15
2013-4-3,52,43,34,34,26,22,95,54,31,30.31,30.17,15,3,21,0.00
2013-4-4,54,46,37,36,31,24,93,58,38,30.18,30.05,11,2,15,0.24
2013-4-5,71,55,39,39,34,28,67,46,29,30.18,29.97,10,2,13,0.00
2013-4-6,75,62,50,48,42,36,64,49,34,29.97,29.74,21,5,30,0.00
2013-4-7,78,67,57,58,53,48,81,62,42,29.87,29.70,14,4,24,0.00
2013-4-8,74,65,58,62,58,55,92,78,63,29.77,29.66,16,4,21,0.02
2013-4-9,79,68,60,63,59,55,87,74,54,29.79,29.68,11,3,18,0.00
2013-4-10,73,56,39,65,52,37,100,86,71,29.84,29.60,21,5,25,0.75
2013-4-11,49,40,34,37,33,30,95,77,53,29.83,29.73,14,6,22,0.00
2013-4-12,56,44,36,36,32,28,83,64,43,30.03,29.79,17,4,23,0.00
2013-4-13,69,55,40,46,39,33,79,58,40,30.06,29.81,10,2,17,0.00
2013-4-14,81,66,51,58,48,39,84,58,25,29.82,29.49,17,4,27,0.00
2013-4-15,80,68,58,64,60,54,93,78,55,29.79,29.65,12,3,18,0.00
2013-4-16,73,57,51,62,53,49,100,87,66,29.98,29.79,9,2,13,0.00
2013-4-17,84,69,52,69,61,49,100,77,55,29.97,29.60,16,4,25,0.00
2013-4-18,76,52,38,66,48,30,100,86,68,29.91,29.50,19,6,27,3.26
2013-4-19,54,43,34,30,27,22,74,55,33,30.10,29.91,16,7,26,0.00
2013-4-20,67,52,35,39,34,29,85,53,29,30.23,30.10,9,1,12,0.00
2013-4-21,67,57,48,43,40,36,79,56,36,30.28,30.11,13,3,18,0.00
2013-4-22,72,59,46,46,40,37,74,53,31,30.19,29.87,10,2,18,0.00
2013-4-23,59,49,36,55,45,35,100,87,60,30.07,29.77,15,3,23,0.61
2013-4-24,54,42,35,36,31,26,95,68,37,30.31,30.07,13,4,20,0.00
2013-4-25,71,54,34,38,32,27,80,47,23,30.37,30.21,7,1,10,0.00
2013-4-26,58,49,46,48,44,38,100,86,48,30.34,30.16,10,3,17,1.17
2013-4-27,55,50,47,54,50,47,100,99,92,30.17,29.97,9,2,15,0.35
2013-4-28,76,59,49,54,49,44,100,74,34,30.02,29.85,8,2,12,0.00
2013-4-29,87,69,50,62,54,49,100,65,31,29.90,29.72,13,2,18,0.00
2013-4-30,84,72,58,60,53,46,90,56,28,29.84,29.75,14,2,23,0.00